Temperature
6 4 4 4 5 6 5 4 4 4 3 3 2 2 2 2 1 1 1 1 1 2 2 3 3 3 3 3 3 3 3 3 3 3 3 3 3 3 3 3 3 3 4 4
4 4 4 4 4 4 4 4 3 3 3 3 2 2 1 1 1 1 0 0 0 1 2 2 2 2 2 2 2 2 2 2 3 3 3 2 2 2 2 2 2 3 3 3
5 4 4 4 4 4 4 3 3 3 2 2 2 2 1 1 0 0 -0 -0 0 1 1 1 1 1 1 2 2 2 2 2 2 2 2 2 2 2 2 2 2 2 2 2
3 3 4 4 3 4 4 3 3 3 2 1 2 2 2 0 -1 -1 -1 -1 -0 0 0 0 0 1 1 1 1 1 1 1 1 1 1 1 1 1 1 1 1 1 1 1
2 2 3 3 3 3 2 2 2 2 1 0 -0 1 1 -1 -1 -1 -2 -2 -1 -0 -0 0 0 0 0 0 0 0 0 0 0 0 0 0 -0 0 0 0 1 1 1 1
2 2 2 2 2 2 1 1 1 -0 -0 1 0 0 1 -1 -1 -2 -2 -2 -2 -1 -1 -0 -0 -0 -0 -0 -0 -1 -0 -0 -0 -0 -1 -1 -1 -1 -1 -0 -0 0 0 0
2 2 1 1 2 1 1 1 1 1 0 1 -1 -0 -0 -1 -2 -2 -3 -3 -2 -2 -1 -1 -1 -1 -1 -1 -1 -1 -1 -1 -1 -1 -1 -1 -1 -1 -1 -1 -1 -1 -1 -0
2 2 1 0 1 1 0 1 2 2 1 0 -1 -1 -1 -3 -3 -3 -3 -3 -3 -2 -2 -2 -2 -2 -2 -2 -2 -2 -2 -2 -2 -2 -2 -2 -2 -2 -2 -2 -2 -2 -2 -1
1 1 0 0 -0 0 0 -0 -0 -1 -1 -1 -1 -3 -3 -3 -4 -4 -4 -3 -3 -3 -3 -2 -2 -2 -2 -2 -2 -3 -2 -2 -3 -3 -3 -3 -3 -3 -3 -2 -2 -2 -2 -2
0 0 -0 -1 -0 -1 -1 -2 -2 -1 0 0 -1 -2 -2 -2 -3 -4 -4 -4 -3 -3 -3 -3 -3 -3 -3 -3 -3 -3 -3 -3 -3 -3 -3 -3 -3 -3 -3 -3 -3 -3 -3 -3
-1 -0 -1 -1 -1 -1 -2 -2 -2 -2 -2 -1 -1 -1 -2 -3 -3 -4 -4 -4 -4 -4 -4 -4 -4 -4 -4 -4 -4 -4 -4 -4 -4 -4 -4 -4 -4 -4 -4 -4 -3 -3 -3 -3
-2 -2 -2 -2 -2 -2 -2 -2 -3 -1 -2 -4 -3 -2 -3 -4 -4 -4 -4 -4 -4 -4 -4 -4 -4 -4 -4 -4 -4 -4 -4 -4 -4 -4 -4 -4 -4 -4 -4 -4 -4 -4 -4 -4
-3 -2 -1 -1 -2 -3 -3 -4 -4 -4 -4 -4 -3 -1 -3 -5 -5 -4 -5 -4 -4 -4 -4 -5 -5 -5 -5 -5 -5 -5 -5 -5 -5 -5 -5 -5 -5 -5 -5 -5 -5 -5 -5 -5
-2 -3 -2 -0 -1 -3 -4 -4 -5 -4 -4 -4 -4 -3 -3 -4 -5 -5 -5 -4 -5 -5 -5 -5 -5 -5 -5 -5 -5 -6 -6 -6 -6 -6 -6 -6 -6 -6 -6 -6 -6 -6 -6 -6
-3 -3 -4 -4 -3 -3 -3 -4 -4 -4 -4 -3 -3 -4 -3 -4 -5 -5 -5 -5 -5 -5 -6 -6 -6 -6 -6 -6 -6 -6 -6 -6 -6 -6 -6 -6 -7 -7 -7 -6 -6 -6 -6 -6
-4 -4 -5 -4 -4 -4 -4 -4 -4 -4 -4 -5 -4 -4 -5 -5 -5 -5 -5 -5 -6 -6 -6 -6 -6 -6 -6 -7 -7 -7 -7 -7 -7 -7 -7 -7 -7 -7 -7 -7 -7 -7 -7 -7
-6 -5 -4 -4 -5 -4 -4 -4 -5 -5 -6 -5 -4 -4 -6 -7 -6 -6 -6 -6 -6 -6 -6 -7 -7 -7 -7 -7 -7 -7 -7 -8 -8 -8 -8 -8 -8 -8 -8 -8 -8 -8 -8 -8
-6 -6 -6 -5 -5 -4 -3 -6 -6 -6 -6 -7 -6 -7 -7 -7 -6 -6 -6 -6 -6 -6 -7 -7 -7 -7 -7 -7 -8 -8 -8 -8 -8 -8 -8 -8 -8 -8 -8 -8 -8 -8 -8 -8
-7 -6 -6 -6 -5 -5 -4 -6 -7 -6 -6 -7 -7 -7 -7 -7 -7 -6 -6 -6 -7 -7 -7 -7 -7 -8 -8 -8 -8 -8 -8 -8 -9 -9 -8 -8 -9 -9 -9 -9 -9 -9 -9 -9
-8 -7 -7 -7 -5 -4 -4 -6 -7 -6 -6 -6 -7 -8 -8 -8 -8 -7 -6 -7 -7 -7 -8 -8 -8 -8 -8 -9 -9 -9 -9 -9 -9 -9 -9 -9 -9 -9 -9 -9 -9 -9 -9 -9
-7 -8 -7 -7 -6 -6 -6 -7 -6 -5 -5 -6 -7 -7 -8 -9 -8 -7 -7 -7 -8 -8 -8 -8 -8 -9 -9 -9 -9 -9 -9 -9 -9 -9 -9 -9 -10 -10 -10 -10 -10 -10 -10 -10
-7 -7 -8 -7 -6 -5 -7 -8 -7 -6 -6 -6 -7 -7 -8 -8 -8 -8 -8 -8 -8 -8 -9 -9 -9 -9 -9 -9 -10 -10 -10 -10 -10 -10 -10 -10 -10 -10 -10 -10 -10 -10 -10 -11
-8 -7 -7 -7 -5 -6 -7 -7 -7 -7 -7 -7 -7 -7 -8 -8 -8 -9 -9 -9 -9 -9 -9 -9 -9 -10 -10 -10 -10 -10 -10 -10 -10 -10 -10 -10 -10 -11 -11 -11 -11 -11 -11 -11
-9 -9 -9 -9 -8 -8 -8 -7 -7 -7 -7 -7 -8 -8 -8 -9 -9 -9 -9 -9 -10 -10 -10 -10 -10 -10 -10 -10 -10 -11 -11 -11 -11 -11 -11 -11 -11 -11 -11 -11 -11 -11 -11 -12
-9 -10 -9 -9 -9 -9 -8 -7 -7 -7 -8 -8 -8 -8 -9 -9 -9 -9 -10 -10 -10 -10 -10 -10 -11 -11 -11 -11 -11 -11 -11 -11 -11 -11 -11 -11 -11 -11 -11 -11 -11 -11 -12 -12
-11 -11 -9 -8 -8 -9 -8 -7 -8 -8 -8 -9 -9 -9 -9 -10 -10 -10 -10 -10 -11 -11 -11 -11 -11 -11 -11 -11 -11 -12 -12 -12 -12 -12 -12 -12 -12 -12 -12 -12 -12 -12 -12 -12
Wind_Speed
4 4 2 5 6 3 3 3 4 4 2 1 4 7 6 3 2 3 3 2 2 3 2 1 1 2 2 2 2 2 2 2 3 2 2 1 1 2 3 4 4 4 5 5
5 1 4 1 2 2 2 2 3 3 1 1 3 7 5 3 3 3 2 2 3 3 3 2 2 2 2 2 2 2 2 2 2 1 0 0 0 1 2 3 4 4 4 4
4 2 1 2 2 2 2 5 5 4 3 2 2 6 3 2 0 1 1 1 2 2 2 1 0 1 1 1 1 1 1 2 1 2 2 3 2 2 2 2 3 4 4 4
0 2 1 2 1 3 4 3 4 2 0 3 0 5 5 3 2 2 3 3 3 2 1 1 0 0 0 0 1 1 1 2 1 2 3 3 1 1 2 2 2 4 3 3
1 1 1 1 2 2 3 1 2 2 2 2 2 3 7 1 4 5 4 4 3 2 1 1 1 1 0 0 0 0 1 1 1 2 2 2 0 1 1 1 1 2 4 4
1 0 1 1 1 2 3 4 4 3 3 4 5 5 6 3 4 4 3 3 3 3 2 1 0 1 1 2 1 1 1 1 1 1 1 1 1 1 1 1 1 2 2 3
2 1 1 1 2 2 3 4 3 4 2 6 2 4 7 4 4 3 3 3 3 2 2 1 1 1 1 1 1 1 1 1 1 1 0 0 1 2 2 2 2 2 2 2
1 4 1 1 2 3 2 4 5 5 5 5 2 6 6 3 2 1 2 2 2 2 2 1 1 1 1 1 0 0 0 1 1 1 1 1 1 2 2 3 3 2 3 3
4 3 2 2 1 3 3 3 2 4 1 4 6 6 7 2 2 2 2 2 2 3 2 2 1 1 1 1 1 1 1 1 2 2 1 1 1 2 3 3 3 3 3 4
4 2 2 2 2 3 1 5 4 4 3 6 6 5 5 5 5 4 3 4 4 3 2 2 2 2 1 1 2 1 2 2 2 2 2 2 2 3 3 3 3 3 4 4
2 3 2 1 2 4 2 2 3 3 3 4 5 6 4 5 5 5 6 5 4 4 3 3 2 2 2 1 1 1 2 2 2 3 3 3 3 3 3 3 3 4 4 3
2 3 2 4 1 0 3 4 5 4 5 4 4 7 3 3 3 4 5 5 4 4 3 2 2 2 2 2 2 2 2 3 3 3 3 3 3 3 3 3 4 4 4 3
3 4 1 4 2 1 1 2 3 3 3 4 5 7 2 1 3 3 4 5 4 4 3 2 2 2 3 2 2 3 3 3 3 3 3 3 3 3 4 4 4 5 3 3
3 3 5 7 5 3 3 3 4 5 4 6 9 11 8 7 6 6 5 5 4 4 3 3 3 3 3 3 3 3 3 3 3 3 3 4 4 5 5 4 4 4 3 3
3 3 4 5 4 2 5 6 6 9 9 9 10 10 12 8 7 5 4 4 4 4 4 4 4 4 4 4 4 3 4 3 3 3 4 5 5 4 4 5 4 3 3 3
2 2 1 4 4 4 6 8 8 9 8 10 10 12 8 5 3 4 4 4 4 5 5 4 4 4 4 4 4 4 4 4 4 4 5 5 4 5 4 4 3 3 3 3
2 4 2 4 3 4 8 8 9 5 5 6 10 9 4 4 4 5 5 4 5 5 5 5 4 4 4 4 4 4 4 4 4 4 5 5 4 4 4 4 3 3 3 3
5 4 2 2 1 7 7 1 4 5 6 6 6 5 4 5 5 5 4 4 4 4 4 4 4 4 4 3 3 3 3 3 4 4 4 3 3 4 4 3 4 4 3 4
3 5 3 2 3 8 6 2 3 4 6 4 6 6 5 4 4 4 3 1 3 3 4 4 3 3 3 3 3 2 3 3 3 3 4 4 3 4 4 4 4 4 4 4
2 2 3 3 3 6 6 2 1 2 5 3 3 4 3 2 3 5 3 3 3 3 3 3 3 3 3 4 3 2 3 3 4 4 5 4 4 4 5 5 5 4 4 5
2 2 4 5 6 8 5 1 3 2 6 3 2 2 2 3 4 4 4 4 4 3 4 3 3 3 4 3 3 3 4 5 5 5 5 4 4 4 5 5 4 4 4 4
6 5 5 4 5 8 2 4 5 5 2 1 1 2 3 4 5 5 5 5 5 4 4 4 4 4 4 3 2 4 5 5 5 5 5 5 5 5 4 4 5 4 4 4
6 6 5 7 7 2 3 4 2 1 2 2 2 3 3 4 4 5 4 4 4 4 4 4 3 5 5 4 2 4 5 5 5 5 5 5 5 5 5 5 5 4 4 4
3 1 3 4 6 4 4 3 2 2 3 3 2 3 2 4 5 5 5 5 4 4 4 4 4 5 6 5 4 4 5 5 4 5 5 5 5 5 5 4 4 4 4 4
3 3 3 5 5 4 4 4 4 3 2 2 3 2 3 3 4 4 4 5 4 5 4 3 4 5 6 6 6 6 5 4 5 5 5 5 5 5 4 4 4 5 5 6
2 4 5 6 4 3 5 3 2 2 3 3 3 3 2 2 4 4 4 4 4 5 4 4 5 5 6 6 6 6 5 4 4 5 5 4 4 4 4 4 5 8 8 10
Wind_Direction
34 74 187 219 206 194 157 182 246 264 282 179 230 258 275 282 269 265 278 290 298 289 301 22 91 105 114 110 115 121 111 90 82 78 68 52 17 18 25 27 29 35 33 32
53 278 249 205 132 138 159 214 261 292 0 206 261 272 269 253 249 250 255 288 297 318 351 23 64 81 104 125 130 131 129 124 117 105 74 31 15 345 16 17 18 21 25 23
173 239 282 137 126 141 227 208 224 249 339 6 323 297 266 277 318 20 3 302 311 291 291 308 76 95 111 113 140 163 151 140 124 73 64 54 47 33 24 5 359 355 8 7
208 309 70 109 198 186 245 224 208 216 304 287 72 282 279 278 320 335 328 329 317 311 302 293 286 48 94 181 168 171 156 133 111 93 104 105 79 334 295 309 328 345 357 0
261 342 66 169 260 185 205 125 148 173 174 289 264 231 284 334 290 284 292 308 311 311 296 259 241 229 346 55 101 111 114 119 107 111 136 141 145 291 319 336 343 347 352 355
242 308 145 205 4 133 131 73 61 63 88 264 230 200 274 248 243 263 270 294 311 308 313 312 7 53 38 44 58 62 71 55 60 88 128 157 191 292 327 319 313 323 334 340
329 329 11 60 80 45 87 91 16 345 331 251 191 212 249 264 253 230 238 273 301 307 293 290 360 27 37 44 55 54 60 25 20 39 24 235 225 228 240 256 268 286 314 308
221 284 304 14 161 176 192 158 174 220 243 277 260 235 249 265 287 271 259 275 313 324 309 262 255 249 255 269 258 173 224 325 334 341 325 307 288 255 260 267 265 260 270 276
185 247 6 26 13 133 145 183 169 144 259 277 267 285 297 285 306 310 314 321 307 304 307 294 292 289 272 264 249 235 244 289 296 290 301 292 285 286 280 278 273 271 286 292
158 225 305 337 51 29 120 147 113 145 213 264 282 271 259 265 265 281 294 289 285 295 300 298 302 305 284 259 256 244 236 257 280 279 269 287 283 282 278 283 278 272 285 286
123 166 311 18 198 206 124 144 151 158 178 203 270 268 232 228 238 247 260 269 271 281 281 278 284 286 286 283 254 242 247 265 278 279 275 282 282 287 282 277 280 278 283 276
132 133 236 250 260 263 195 193 166 185 232 205 231 268 277 235 257 250 266 274 276 285 284 280 271 275 280 280 270 261 264 269 272 269 274 280 281 286 281 282 286 285 271 271
139 129 20 332 329 359 247 199 178 147 140 188 214 265 298 324 305 287 280 287 285 293 295 294 284 274 272 271 276 276 272 275 281 277 274 277 279 279 276 280 286 284 270 270
120 146 191 219 230 190 221 213 173 158 196 227 231 256 282 288 292 294 288 281 279 275 277 277 272 272 274 273 268 271 275 272 275 275 270 269 269 267 270 276 276 273 269 252
126 197 228 260 278 254 243 239 206 207 216 227 250 254 270 274 276 278 282 282 285 285 289 282 277 278 282 284 281 273 276 274 271 266 266 266 270 273 279 277 270 273 273 268
125 187 217 280 278 265 267 256 237 237 238 243 264 273 272 287 302 298 286 281 287 285 288 294 291 288 285 281 282 285 281 279 272 263 267 273 277 278 273 269 268 271 274 272
162 157 185 266 304 322 274 240 215 218 220 208 238 256 297 309 297 287 280 278 285 289 295 294 291 285 287 281 275 270 275 279 272 269 272 275 272 272 272 274 273 268 267 263
163 164 183 257 15 250 253 236 195 214 248 228 248 275 278 278 291 291 278 268 287 301 307 310 309 308 302 289 288 286 288 286 281 280 279 280 279 278 280 276 272 268 262 256
179 168 168 177 236 274 290 257 175 205 278 235 239 270 293 315 324 308 292 270 281 297 300 304 310 316 326 322 319 320 313 305 299 295 293 291 284 281 281 277 275 271 266 263
64 132 159 170 210 248 260 258 209 117 290 264 222 256 280 25 323 296 318 333 324 324 323 324 333 341 336 329 339 337 316 313 303 298 295 293 285 279 277 275 278 278 271 268
124 151 194 207 232 261 262 206 115 162 265 289 217 227 202 210 242 282 317 327 329 329 329 336 341 335 324 330 346 325 313 302 298 301 301 298 289 281 275 276 276 274 271 272
179 179 197 181 220 257 192 132 180 228 291 273 242 243 241 256 283 302 314 319 328 332 334 335 336 327 325 332 334 315 304 302 307 308 303 297 291 285 284 277 276 271 261 264
201 197 198 200 220 266 170 194 236 252 248 261 261 270 260 273 288 301 309 312 317 320 322 329 325 322 324 323 316 300 302 310 311 308 302 298 297 292 285 276 275 274 259 258
253 207 199 250 263 264 249 259 290 270 256 269 267 272 264 270 286 296 301 308 315 317 318 322 324 319 316 317 310 292 300 306 303 301 300 300 298 294 288 279 271 265 257 259
235 184 222 256 280 307 277 252 270 274 281 295 301 287 271 270 285 287 294 298 303 309 314 316 311 305 305 311 307 304 304 307 302 298 295 297 294 287 286 282 271 271 259 259
202 191 205 242 246 235 269 295 298 270 281 286 296 308 307 279 279 290 291 292 297 303 308 311 309 307 306 309 307 306 303 297 295 300 299 295 293 289 286 288 297 294 289 287
Height
1493 1498 1502 1501 1501 1500 1504 1508 1509 1509 1509 1510 1510 1509 1506 1506 1505 1504 1503 1503 1502 1502 1502 1503 1504 1505 1506 1507 1509 1510 1511 1512 1513 1514 1515 1516 1517 1518 1519 1519 1520 1520 1521 1521
1498 1501 1500 1499 1500 1502 1504 1508 1510 1509 1509 1509 1510 1508 1504 1503 1503 1502 1501 1501 1500 1500 1500 1500 1501 1502 1503 1504 1506 1507 1508 1509 1510 1511 1513 1514 1515 1516 1517 1517 1517 1518 1518 1518
1497 1501 1499 1499 1501 1503 1505 1508 1508 1509 1510 1510 1511 1505 1502 1501 1501 1500 1500 1499 1499 1498 1498 1498 1499 1499 1501 1502 1503 1505 1506 1507 1508 1509 1511 1511 1512 1512 1513 1514 1514 1515 1515 1516
1501 1500 1499 1500 1501 1501 1503 1504 1505 1508 1512 1515 1513 1511 1500 1500 1500 1499 1499 1498 1497 1497 1497 1497 1497 1498 1499 1500 1501 1503 1504 1505 1506 1507 1507 1508 1508 1508 1509 1510 1511 1512 1512 1513
1501 1501 1500 1501 1502 1502 1504 1504 1506 1509 1513 1517 1517 1516 1502 1502 1501 1498 1498 1496 1495 1495 1495 1495 1495 1496 1497 1498 1500 1501 1502 1503 1503 1504 1505 1505 1506 1506 1507 1507 1508 1508 1509 1509
1501 1501 1501 1501 1502 1502 1504 1507 1510 1514 1517 1516 1513 1515 1503 1503 1498 1496 1495 1494 1493 1493 1493 1494 1494 1495 1496 1497 1498 1498 1499 1500 1501 1501 1502 1502 1502 1503 1503 1504 1504 1504 1505 1505
1501 1501 1501 1501 1503 1504 1505 1509 1514 1514 1520 1512 1513 1512 1502 1497 1495 1494 1494 1493 1492 1492 1491 1492 1492 1493 1493 1494 1495 1496 1496 1497 1498 1498 1498 1499 1499 1499 1499 1499 1500 1500 1500 1501
1502 1503 1503 1503 1503 1505 1507 1506 1510 1512 1514 1512 1513 1509 1499 1494 1493 1492 1492 1491 1491 1490 1490 1490 1490 1490 1491 1492 1492 1493 1493 1494 1494 1495 1495 1495 1496 1495 1496 1496 1496 1496 1496 1497
1503 1503 1504 1503 1503 1504 1507 1509 1509 1516 1522 1521 1512 1509 1499 1492 1492 1491 1491 1490 1489 1489 1488 1488 1488 1489 1489 1489 1490 1490 1490 1491 1491 1491 1491 1492 1492 1492 1492 1492 1492 1493 1493 1493
1501 1506 1505 1505 1504 1505 1506 1509 1514 1515 1514 1512 1510 1510 1500 1492 1490 1490 1489 1488 1487 1487 1487 1486 1486 1487 1487 1487 1488 1488 1488 1488 1488 1488 1488 1488 1488 1488 1488 1488 1488 1489 1489 1489
1501 1505 1508 1507 1507 1507 1509 1510 1511 1514 1514 1514 1512 1502 1491 1489 1488 1488 1487 1486 1486 1485 1484 1484 1484 1484 1485 1485 1485 1485 1485 1484 1484 1484 1484 1483 1483 1483 1483 1484 1484 1484 1484 1484
1501 1506 1510 1508 1507 1506 1506 1507 1510 1510 1513 1519 1516 1502 1487 1487 1485 1485 1485 1484 1484 1483 1483 1482 1482 1482 1482 1482 1481 1481 1481 1481 1480 1480 1479 1479 1479 1479 1479 1479 1479 1479 1479 1479
1501 1506 1508 1505 1509 1509 1508 1507 1508 1509 1514 1518 1513 1497 1487 1485 1484 1484 1483 1482 1482 1481 1480 1480 1479 1479 1479 1478 1478 1477 1477 1477 1476 1476 1475 1474 1474 1474 1474 1474 1474 1474 1474 1474
1498 1504 1504 1500 1497 1502 1505 1505 1507 1508 1511 1512 1505 1492 1486 1484 1483 1482 1480 1480 1479 1478 1478 1477 1476 1476 1476 1475 1474 1473 1473 1472 1472 1471 1470 1469 1469 1469 1469 1469 1469 1469 1469 1469
1498 1504 1505 1503 1501 1501 1500 1500 1502 1504 1500 1500 1491 1490 1483 1481 1481 1480 1478 1477 1476 1475 1475 1474 1473 1472 1472 1471 1470 1469 1468 1468 1467 1466 1466 1465 1465 1464 1464 1464 1464 1464 1464 1464
1499 1503 1505 1503 1500 1500 1499 1496 1497 1496 1496 1494 1491 1486 1480 1479 1478 1477 1476 1474 1473 1472 1471 1471 1470 1469 1468 1467 1466 1465 1464 1463 1463 1462 1461 1461 1460 1460 1460 1459 1459 1459 1459 1459
1501 1504 1504 1502 1502 1499 1496 1489 1490 1491 1489 1489 1486 1481 1479 1478 1476 1475 1473 1472 1471 1469 1468 1468 1467 1466 1464 1463 1462 1461 1460 1459 1459 1458 1457 1457 1456 1455 1455 1454 1454 1454 1454 1455
1500 1503 1505 1505 1503 1500 1484 1483 1483 1485 1484 1483 1481 1479 1477 1476 1474 1473 1471 1470 1469 1467 1466 1465 1463 1462 1461 1460 1459 1458 1457 1456 1455 1454 1453 1453 1452 1451 1450 1450 1450 1450 1450 1450
1495 1499 1504 1505 1503 1494 1484 1482 1483 1484 1481 1478 1478 1476 1475 1474 1472 1470 1469 1469 1468 1466 1465 1463 1461 1459 1458 1457 1456 1455 1454 1453 1452 1451 1450 1449 1448 1447 1446 1446 1445 1445 1445 1445
1497 1498 1502 1505 1501 1494 1481 1480 1479 1482 1480 1474 1474 1474 1474 1473 1474 1470 1468 1467 1465 1464 1462 1461 1459 1457 1456 1455 1454 1452 1451 1450 1449 1448 1447 1446 1445 1443 1443 1442 1441 1441 1441 1441
1499 1501 1502 1502 1499 1488 1480 1479 1480 1484 1477 1472 1471 1472 1472 1472 1471 1469 1466 1465 1463 1462 1460 1459 1457 1455 1454 1453 1451 1450 1448 1447 1446 1445 1444 1442 1442 1440 1439 1438 1438 1437 1437 1436
1495 1498 1499 1499 1497 1487 1477 1478 1479 1476 1472 1471 1470 1470 1470 1469 1467 1465 1464 1462 1461 1459 1458 1456 1454 1453 1452 1451 1449 1447 1446 1445 1443 1442 1440 1439 1438 1437 1436 1435 1434 1433 1432 1431
1490 1487 1487 1486 1481 1476 1474 1473 1473 1472 1471 1469 1469 1468 1467 1466 1464 1463 1461 1460 1458 1457 1455 1454 1452 1451 1449 1448 1446 1444 1443 1442 1440 1438 1437 1436 1435 1433 1432 1431 1430 1429 1428 1427
1484 1483 1483 1482 1475 1472 1472 1471 1470 1470 1469 1468 1467 1466 1465 1463 1462 1460 1459 1457 1456 1454 1453 1452 1450 1448 1446 1445 1444 1442 1440 1438 1437 1435 1434 1432 1431 1429 1429 1427 1426 1425 1424 1423
1480 1481 1481 1478 1473 1470 1468 1468 1467 1467 1466 1465 1464 1463 1462 1461 1459 1458 1456 1455 1453 1452 1451 1449 1447 1445 1444 1442 1441 1439 1437 1435 1433 1432 1430 1429 1427 1426 1424 1423 1422 1421 1420 1419
1477 1478 1478 1472 1469 1469 1466 1465 1465 1464 1463 1462 1461 1460 1460 1459 1457 1455 1454 1452 1451 1449 1448 1446 1445 1443 1441 1439 1437 1436 1434 1432 1430 1428 1426 1425 1423 1422 1420 1419 1418 1417 1417 1415